When you browse on this site, cookies collect data to enhance your experience and personalize the content and advertising you see.
Visit our Privacy Policy to learn more. By continuing to use the site, you agree to this use of cookies and data.
  • In Portugal
  • List of Countries
  • For 7 days
  • Water Temperature
  • Weather Map
  • Weather Widgets
  • user-avatar
    Login

    Hourly Weather Kisielowka

    Today, 29 January, Wednesday

    Time Temperature Precipitation Wind Pressure Humidity
    00:00 +1°C° 0 mm 2 mps 710 mmHg 88%
    01:00 -1°C° 0 mm 4 mps 710 mmHg 89%
    02:00 -1°C° 0.1 mm 4 mps 710 mmHg 88%
    03:00 -1°C° 0.1 mm 4 mps 710 mmHg 88%
    04:00 -2°C° 0.1 mm 4 mps 710 mmHg 87%
    05:00 -2°C° 0 mm 4 mps 710 mmHg 86%
    06:00 -2°C° 0 mm 3 mps 711 mmHg 85%
    07:00 -2°C° 0 mm 3 mps 711 mmHg 85%
    08:00 -3°C° 0 mm 4 mps 712 mmHg 79%
    09:00 -2°C° 0 mm 5 mps 712 mmHg 74%
    10:00 -2°C° 0 mm 6 mps 712 mmHg 68%
    11:00 -1°C° 0.1 mm 6 mps 712 mmHg 66%
    12:00 -1°C° 0.1 mm 6 mps 712 mmHg 64%
    13:00 0°C° 0 mm 7 mps 713 mmHg 59%
    14:00 -1°C° 0 mm 6 mps 712 mmHg 65%
    15:00 -1°C° 0 mm 5 mps 712 mmHg 71%
    16:00 -1°C° 0 mm 4 mps 712 mmHg 76%
    17:00 -2°C° 0 mm 4 mps 713 mmHg 78%
    18:00 -2°C° 0 mm 4 mps 714 mmHg 80%
    19:00 -2°C° 0 mm 4 mps 714 mmHg 82%
    20:00 -2°C° 0.1 mm 4 mps 714 mmHg 85%
    21:00 -2°C° 0.1 mm 4 mps 714 mmHg 87%
    22:00 -2°C° 0.1 mm 4 mps 715 mmHg 90%
    23:00 -2°C° 0 mm 4 mps 715 mmHg 90%

    Tomorrow, 30 January, Thursday

    Time Temperature Precipitation Wind Pressure Humidity
    00:00 -2°C° 0 mm 4 mps 716 mmHg 89%
    01:00 -2°C° 0 mm 3 mps 716 mmHg 89%
    02:00 -2°C° 0 mm 3 mps 716 mmHg 89%
    03:00 -3°C° 0 mm 4 mps 717 mmHg 90%
    04:00 -3°C° 0 mm 4 mps 717 mmHg 90%
    05:00 -3°C° 0.1 mm 4 mps 717 mmHg 90%
    06:00 -3°C° 0.1 mm 4 mps 718 mmHg 90%
    07:00 -2°C° 0.1 mm 5 mps 718 mmHg 90%
    08:00 -2°C° 0 mm 5 mps 719 mmHg 85%
    09:00 -1°C° 0 mm 5 mps 719 mmHg 80%
    10:00 -1°C° 0 mm 5 mps 719 mmHg 75%
    11:00 0°C° 0 mm 4 mps 719 mmHg 72%
    12:00 0°C° 0 mm 4 mps 719 mmHg 68%
    13:00 +1°C° 0 mm 4 mps 719 mmHg 65%
    14:00 +1°C° 0 mm 4 mps 718 mmHg 69%
    15:00 +1°C° 0 mm 3 mps 718 mmHg 73%
    16:00 +1°C° 0 mm 3 mps 718 mmHg 77%
    17:00 0°C° 0 mm 3 mps 718 mmHg 79%
    18:00 0°C° 0 mm 3 mps 718 mmHg 82%
    19:00 0°C° 0 mm 3 mps 717 mmHg 84%
    20:00 +1°C° 0 mm 2 mps 717 mmHg 85%
    21:00 +1°C° 0 mm 2 mps 717 mmHg 86%
    22:00 -1°C° 0 mm 2 mps 716 mmHg 87%
    23:00 -1°C° 0 mm 2 mps 716 mmHg 86%

    Day after tomorrow, 31 January, Friday

    Time Temperature Precipitation Wind Pressure Humidity
    00:00 -1°C° 0 mm 2 mps 716 mmHg 85%
    01:00 -1°C° 0 mm 2 mps 716 mmHg 85%
    02:00 -1°C° 0 mm 3 mps 715 mmHg 83%
    03:00 0°C° 0 mm 3 mps 714 mmHg 81%
    04:00 0°C° 0 mm 3 mps 714 mmHg 79%
    05:00 +1°C° 0.3 mm 3 mps 713 mmHg 81%
    06:00 0°C° 0.3 mm 4 mps 713 mmHg 83%
    07:00 +1°C° 0.3 mm 4 mps 712 mmHg 85%
    08:00 +3°C° 0.5 mm 4 mps 712 mmHg 86%
    09:00 +4°C° 0.5 mm 4 mps 712 mmHg 87%
    10:00 +5°C° 0.5 mm 5 mps 712 mmHg 88%
    11:00 +5°C° 0.5 mm 5 mps 712 mmHg 87%
    12:00 +5°C° 0.5 mm 6 mps 713 mmHg 87%
    13:00 +5°C° 0.5 mm 6 mps 713 mmHg 86%
    14:00 +5°C° 0.1 mm 6 mps 713 mmHg 86%
    15:00 +6°C° 0.1 mm 5 mps 714 mmHg 85%
    16:00 +5°C° 0.1 mm 5 mps 714 mmHg 84%
    17:00 +5°C° 0 mm 5 mps 715 mmHg 84%
    18:00 +5°C° 0 mm 5 mps 716 mmHg 84%
    19:00 +4°C° 0 mm 4 mps 716 mmHg 84%
    20:00 +4°C° 0 mm 4 mps 717 mmHg 85%
    21:00 +4°C° 0 mm 3 mps 717 mmHg 86%
    22:00 +4°C° 0 mm 3 mps 717 mmHg 88%
    23:00 +4°C° 0 mm 3 mps 717 mmHg 88%

    1 February, Saturday

    Time Temperature Precipitation Wind Pressure Humidity
    00:00 +3°C° 0 mm 3 mps 718 mmHg 88%
    01:00 +3°C° 0 mm 3 mps 718 mmHg 88%
    02:00 +4°C° 0 mm 2 mps 717 mmHg 88%
    03:00 +4°C° 0 mm 2 mps 717 mmHg 89%
    04:00 +3°C° 0 mm 2 mps 717 mmHg 89%
    05:00 +3°C° 0 mm 2 mps 717 mmHg 88%
    06:00 +3°C° 0 mm 3 mps 717 mmHg 88%
    07:00 +3°C° 0 mm 3 mps 717 mmHg 87%
    08:00 +4°C° 0 mm 3 mps 717 mmHg 84%
    09:00 +5°C° 0 mm 3 mps 717 mmHg 82%
    10:00 +7°C° 0 mm 3 mps 717 mmHg 80%
    11:00 +8°C° 0 mm 3 mps 717 mmHg 77%
    12:00 +8°C° 0 mm 4 mps 717 mmHg 75%
    13:00 +8°C° 0 mm 4 mps 717 mmHg 73%
    14:00 +8°C° 0 mm 4 mps 716 mmHg 76%
    15:00 +8°C° 0 mm 3 mps 716 mmHg 80%
    16:00 +7°C° 0 mm 3 mps 715 mmHg 83%
    17:00 +7°C° 0 mm 3 mps 715 mmHg 83%
    18:00 +5°C° 0 mm 3 mps 715 mmHg 83%
    19:00 +5°C° 0 mm 3 mps 714 mmHg 82%
    20:00 +5°C° 0.1 mm 4 mps 714 mmHg 83%
    21:00 +6°C° 0.1 mm 4 mps 713 mmHg 83%
    22:00 +6°C° 0.1 mm 4 mps 713 mmHg 83%
    23:00 +6°C° 0.3 mm 5 mps 712 mmHg 83%

    2 February, Sunday

    Time Temperature Precipitation Wind Pressure Humidity
    00:00 +6°C° 0.3 mm 5 mps 712 mmHg 83%
    01:00 +6°C° 0.3 mm 5 mps 712 mmHg 83%
    02:00 +5°C° 0.4 mm 6 mps 712 mmHg 84%
    03:00 +4°C° 0.4 mm 8 mps 712 mmHg 84%
    04:00 +2°C° 0.4 mm 9 mps 712 mmHg 85%
    05:00 +2°C° 0.3 mm 9 mps 713 mmHg 83%
    06:00 +1°C° 0.3 mm 8 mps 713 mmHg 80%
    07:00 +2°C° 0.3 mm 7 mps 714 mmHg 78%
    08:00 +2°C° 0.1 mm 7 mps 715 mmHg 78%
    09:00 +2°C° 0.1 mm 7 mps 715 mmHg 78%
    10:00 0°C° 0.1 mm 7 mps 716 mmHg 77%
    11:00 +2°C° 0 mm 7 mps 716 mmHg 77%
    12:00 +2°C° 0 mm 7 mps 717 mmHg 77%
    13:00 +2°C° 0 mm 7 mps 717 mmHg 76%
    14:00 +2°C° 0 mm 7 mps 717 mmHg 78%
    15:00 +1°C° 0 mm 6 mps 717 mmHg 79%
    16:00 +1°C° 0 mm 6 mps 717 mmHg 81%
    17:00 +1°C° 0 mm 5 mps 717 mmHg 81%
    18:00 +1°C° 0 mm 5 mps 717 mmHg 82%
    19:00 0°C° 0 mm 4 mps 717 mmHg 82%
    20:00 0°C° 0 mm 4 mps 717 mmHg 82%
    21:00 +1°C° 0 mm 3 mps 717 mmHg 82%
    22:00 +1°C° 0 mm 3 mps 717 mmHg 82%
    23:00 +1°C° 0 mm 3 mps 717 mmHg 83%

    3 February, Monday

    Time Temperature Precipitation Wind Pressure Humidity
    00:00 +1°C° 0 mm 3 mps 717 mmHg 84%
    01:00 +2°C° 0 mm 2 mps 717 mmHg 86%
    02:00 +2°C° 0.2 mm 2 mps 716 mmHg 88%
    03:00 +2°C° 0.2 mm 2 mps 716 mmHg 91%
    04:00 +3°C° 0.2 mm 2 mps 716 mmHg 94%
    05:00 +3°C° 0.1 mm 2 mps 716 mmHg 94%
    06:00 +3°C° 0.1 mm 2 mps 716 mmHg 94%
    07:00 +3°C° 0.1 mm 3 mps 716 mmHg 94%
    08:00 +3°C° 0.1 mm 3 mps 717 mmHg 92%
    09:00 +3°C° 0.1 mm 4 mps 717 mmHg 91%
    10:00 +3°C° 0.1 mm 4 mps 718 mmHg 89%
    11:00 +3°C° 0.3 mm 4 mps 718 mmHg 90%
    12:00 +3°C° 0.3 mm 3 mps 718 mmHg 91%
    13:00 +3°C° 0.3 mm 3 mps 718 mmHg 92%
    14:00 +3°C° 0.3 mm 3 mps 718 mmHg 92%
    15:00 +3°C° 0.3 mm 3 mps 719 mmHg 92%
    16:00 +3°C° 0.3 mm 3 mps 719 mmHg 93%
    17:00 +3°C° 0.1 mm 3 mps 719 mmHg 92%
    18:00 +3°C° 0.1 mm 3 mps 719 mmHg 92%
    19:00 +3°C° 0.1 mm 2 mps 719 mmHg 91%
    20:00 +3°C° 0 mm 2 mps 719 mmHg 91%
    21:00 +3°C° 0 mm 2 mps 719 mmHg 91%
    22:00 +3°C° 0 mm 2 mps 719 mmHg 91%
    23:00 +3°C° 0 mm 2 mps 718 mmHg 90%
    Show more